<?xml version="1.0" encoding="UTF-8" standalone="no" ?>
<gpx xmlns="http://www.topografix.com/GPX/1/1" xmlns:xsi="http://www.w3.org/2001/XMLSchema-instance" xsi:schemaLocation="http://www.topografix.com/GPX/1/1 http://www.topografix.com/GPX/1/1/gpx.xsd" version="1.1" creator="VisuGPX - https://www.visugpx.com">
  <metadata>
    <name>circuits VTT</name>
  </metadata>
  <trk>
    <name><![CDATA[05 Les Garrigues - TraceGps issued]]></name>
    <extensions>
      <line xmlns="http://www.topografix.com/GPX/gpx_style/0/2">
        <color>00FFFF</color>
        <width>4</width>
      </line>
    </extensions>
    <trkseg>
      <trkpt lat="43.10842" lon="3.0899">
        <ele>0.27998</ele>
        <time>2005-06-16T11:08:32Z</time>
      </trkpt>
      <trkpt lat="43.10844" lon="3.08957">
        <ele>0.0675</ele>
        <time>2005-06-16T11:08:32Z</time>
      </trkpt>
      <trkpt lat="43.1078" lon="3.08793">
        <ele>1.499952</ele>
        <time>2005-06-16T11:08:32Z</time>
      </trkpt>
      <trkpt lat="43.10849" lon="3.08678">
        <ele>0.900079</ele>
        <time>2005-06-16T11:08:32Z</time>
      </trkpt>
      <trkpt lat="43.10901" lon="3.0851">
        <ele>0.997332</ele>
        <time>2005-06-16T11:08:32Z</time>
      </trkpt>
      <trkpt lat="43.1089" lon="3.08476">
        <ele>1.380113</ele>
        <time>2005-06-16T11:08:32Z</time>
      </trkpt>
      <trkpt lat="43.10869" lon="3.08365">
        <ele>0.950226</ele>
        <time>2005-06-16T11:08:32Z</time>
      </trkpt>
      <trkpt lat="43.10815" lon="3.08291">
        <ele>1.290051</ele>
        <time>2005-06-16T11:08:32Z</time>
      </trkpt>
      <trkpt lat="43.10743" lon="3.08293">
        <ele>3.299723</ele>
        <time>2005-06-16T11:08:32Z</time>
      </trkpt>
      <trkpt lat="43.10721" lon="3.08268">
        <ele>1.519965</ele>
        <time>2005-06-16T11:08:32Z</time>
      </trkpt>
      <trkpt lat="43.10556" lon="3.08398">
        <ele>1.049949</ele>
        <time>2005-06-16T11:08:32Z</time>
      </trkpt>
      <trkpt lat="43.10513" lon="3.08434">
        <ele>0.699968</ele>
        <time>2005-06-16T11:08:32Z</time>
      </trkpt>
      <trkpt lat="43.10466" lon="3.08421">
        <ele>0.525006</ele>
        <time>2005-06-16T11:08:32Z</time>
      </trkpt>
      <trkpt lat="43.10494" lon="3.08333">
        <ele>0.450057</ele>
        <time>2005-06-16T11:08:32Z</time>
      </trkpt>
      <trkpt lat="43.10526" lon="3.08235">
        <ele>0.749943</ele>
        <time>2005-06-16T11:08:32Z</time>
      </trkpt>
      <trkpt lat="43.10551" lon="3.08177">
        <ele>0.599975</ele>
        <time>2005-06-16T11:08:32Z</time>
      </trkpt>
      <trkpt lat="43.10594" lon="3.08113">
        <ele>0.662496</ele>
        <time>2005-06-16T11:08:32Z</time>
      </trkpt>
      <trkpt lat="43.10606" lon="3.08101">
        <ele>0.749952</ele>
        <time>2005-06-16T11:08:32Z</time>
      </trkpt>
      <trkpt lat="43.10644" lon="3.08013">
        <ele>0.319932</ele>
        <time>2005-06-16T11:08:32Z</time>
      </trkpt>
      <trkpt lat="43.10658" lon="3.08001">
        <ele>0.339993</ele>
        <time>2005-06-16T11:08:32Z</time>
      </trkpt>
      <trkpt lat="43.10751" lon="3.07885">
        <ele>1</ele>
        <time>2005-06-16T11:08:32Z</time>
      </trkpt>
      <trkpt lat="43.10928" lon="3.07587">
        <ele>4.180295</ele>
        <time>2005-06-16T11:08:32Z</time>
      </trkpt>
      <trkpt lat="43.10944" lon="3.07554">
        <ele>4.262238</ele>
        <time>2005-06-16T11:08:32Z</time>
      </trkpt>
      <trkpt lat="43.10953" lon="3.07514">
        <ele>4.329624</ele>
        <time>2005-06-16T11:08:32Z</time>
      </trkpt>
      <trkpt lat="43.11007" lon="3.07181">
        <ele>0.029988</ele>
        <time>2005-06-16T11:08:32Z</time>
      </trkpt>
      <trkpt lat="43.11043" lon="3.0693">
        <ele>2.099864</ele>
        <time>2005-06-16T11:08:32Z</time>
      </trkpt>
      <trkpt lat="43.11047" lon="3.06875">
        <ele>1.44995</ele>
        <time>2005-06-16T11:08:32Z</time>
      </trkpt>
      <trkpt lat="43.11054" lon="3.06835">
        <ele>1.19992</ele>
        <time>2005-06-16T11:08:32Z</time>
      </trkpt>
      <trkpt lat="43.11052" lon="3.06798">
        <ele>0.750098</ele>
        <time>2005-06-16T11:08:32Z</time>
      </trkpt>
      <trkpt lat="43.11073" lon="3.06731">
        <ele>0.800072</ele>
        <time>2005-06-16T11:08:32Z</time>
      </trkpt>
      <trkpt lat="43.11081" lon="3.06596">
        <ele>1</ele>
        <time>2005-06-16T11:08:32Z</time>
      </trkpt>
      <trkpt lat="43.11085" lon="3.06578">
        <ele>1</ele>
        <time>2005-06-16T11:08:32Z</time>
      </trkpt>
      <trkpt lat="43.11124" lon="3.06597">
        <ele>0.300082</ele>
        <time>2005-06-16T11:08:32Z</time>
      </trkpt>
      <trkpt lat="43.11268" lon="3.0681">
        <ele>1.544926</ele>
        <time>2005-06-16T11:08:32Z</time>
      </trkpt>
      <trkpt lat="43.11273" lon="3.06684">
        <ele>7.899905</ele>
        <time>2005-06-16T11:08:32Z</time>
      </trkpt>
      <trkpt lat="43.11262" lon="3.06663">
        <ele>8.920392</ele>
        <time>2005-06-16T11:08:32Z</time>
      </trkpt>
      <trkpt lat="43.11236" lon="3.06616">
        <ele>6.640047</ele>
        <time>2005-06-16T11:08:32Z</time>
      </trkpt>
      <trkpt lat="43.11229" lon="3.06598">
        <ele>5.380575</ele>
        <time>2005-06-16T11:08:32Z</time>
      </trkpt>
      <trkpt lat="43.11236" lon="3.06567">
        <ele>5.35995</ele>
        <time>2005-06-16T11:08:32Z</time>
      </trkpt>
      <trkpt lat="43.11245" lon="3.0654">
        <ele>4.949869</ele>
        <time>2005-06-16T11:08:32Z</time>
      </trkpt>
      <trkpt lat="43.11268" lon="3.06522">
        <ele>6.500418</ele>
        <time>2005-06-16T11:08:32Z</time>
      </trkpt>
      <trkpt lat="43.11302" lon="3.0651">
        <ele>8.011795</ele>
        <time>2005-06-16T11:08:32Z</time>
      </trkpt>
      <trkpt lat="43.11313" lon="3.06495">
        <ele>7.499551</ele>
        <time>2005-06-16T11:08:32Z</time>
      </trkpt>
      <trkpt lat="43.11331" lon="3.06461">
        <ele>6.669761</ele>
        <time>2005-06-16T11:08:32Z</time>
      </trkpt>
      <trkpt lat="43.11421" lon="3.06404">
        <ele>6.419948</ele>
        <time>2005-06-16T11:08:32Z</time>
      </trkpt>
      <trkpt lat="43.11424" lon="3.06383">
        <ele>5.145047</ele>
        <time>2005-06-16T11:08:32Z</time>
      </trkpt>
      <trkpt lat="43.11422" lon="3.06343">
        <ele>4.360081</ele>
        <time>2005-06-16T11:08:32Z</time>
      </trkpt>
      <trkpt lat="43.11431" lon="3.06318">
        <ele>4.100048</ele>
        <time>2005-06-16T11:08:32Z</time>
      </trkpt>
      <trkpt lat="43.11444" lon="3.06306">
        <ele>4.400077</ele>
        <time>2005-06-16T11:08:32Z</time>
      </trkpt>
      <trkpt lat="43.11472" lon="3.06282">
        <ele>4.999914</ele>
        <time>2005-06-16T11:08:32Z</time>
      </trkpt>
      <trkpt lat="43.11499" lon="3.06279">
        <ele>5.210041</ele>
        <time>2005-06-16T11:08:32Z</time>
      </trkpt>
      <trkpt lat="43.1151" lon="3.0627">
        <ele>5.169963</ele>
        <time>2005-06-16T11:08:32Z</time>
      </trkpt>
      <trkpt lat="43.11525" lon="3.06298">
        <ele>5.909843</ele>
        <time>2005-06-16T11:08:32Z</time>
      </trkpt>
      <trkpt lat="43.11548" lon="3.06314">
        <ele>7.16025</ele>
        <time>2005-06-16T11:08:32Z</time>
      </trkpt>
      <trkpt lat="43.11575" lon="3.06323">
        <ele>9.34487</ele>
        <time>2005-06-16T11:08:32Z</time>
      </trkpt>
      <trkpt lat="43.11617" lon="3.0633">
        <ele>12.287271</ele>
        <time>2005-06-16T11:08:32Z</time>
      </trkpt>
      <trkpt lat="43.1164" lon="3.06327">
        <ele>11.125178</ele>
        <time>2005-06-16T11:08:32Z</time>
      </trkpt>
      <trkpt lat="43.11655" lon="3.06349">
        <ele>13.440157</ele>
        <time>2005-06-16T11:08:32Z</time>
      </trkpt>
      <trkpt lat="43.11691" lon="3.06398">
        <ele>14.824411</ele>
        <time>2005-06-16T11:08:32Z</time>
      </trkpt>
      <trkpt lat="43.11715" lon="3.06435">
        <ele>18.125114</ele>
        <time>2005-06-16T11:08:32Z</time>
      </trkpt>
      <trkpt lat="43.11731" lon="3.06485">
        <ele>20.719593</ele>
        <time>2005-06-16T11:08:32Z</time>
      </trkpt>
      <trkpt lat="43.11791" lon="3.06577">
        <ele>24.749733</ele>
        <time>2005-06-16T11:08:32Z</time>
      </trkpt>
      <trkpt lat="43.11811" lon="3.06596">
        <ele>27.149921</ele>
        <time>2005-06-16T11:08:32Z</time>
      </trkpt>
      <trkpt lat="43.1179" lon="3.06636">
        <ele>23.900499</ele>
        <time>2005-06-16T11:08:32Z</time>
      </trkpt>
      <trkpt lat="43.11783" lon="3.06685">
        <ele>22.999371</ele>
        <time>2005-06-16T11:08:32Z</time>
      </trkpt>
      <trkpt lat="43.11794" lon="3.067">
        <ele>24.199997</ele>
        <time>2005-06-16T11:08:32Z</time>
      </trkpt>
      <trkpt lat="43.11806" lon="3.06712">
        <ele>24.950201</ele>
        <time>2005-06-16T11:08:32Z</time>
      </trkpt>
      <trkpt lat="43.11821" lon="3.06722">
        <ele>25.900667</ele>
        <time>2005-06-16T11:08:32Z</time>
      </trkpt>
      <trkpt lat="43.11796" lon="3.06755">
        <ele>22.284506</ele>
        <time>2005-06-16T11:08:32Z</time>
      </trkpt>
      <trkpt lat="43.11776" lon="3.06807">
        <ele>16.239761</ele>
        <time>2005-06-16T11:08:32Z</time>
      </trkpt>
      <trkpt lat="43.11769" lon="3.06835">
        <ele>13.85981</ele>
        <time>2005-06-16T11:08:32Z</time>
      </trkpt>
      <trkpt lat="43.1178" lon="3.06856">
        <ele>12.469957</ele>
        <time>2005-06-16T11:08:32Z</time>
      </trkpt>
      <trkpt lat="43.11829" lon="3.06891">
        <ele>11.12506</ele>
        <time>2005-06-16T11:08:32Z</time>
      </trkpt>
      <trkpt lat="43.11831" lon="3.06906">
        <ele>10.199874</ele>
        <time>2005-06-16T11:08:32Z</time>
      </trkpt>
      <trkpt lat="43.11773" lon="3.07151">
        <ele>2.500073</ele>
        <time>2005-06-16T11:08:32Z</time>
      </trkpt>
      <trkpt lat="43.11762" lon="3.07166">
        <ele>2.250007</ele>
        <time>2005-06-16T11:08:32Z</time>
      </trkpt>
      <trkpt lat="43.11712" lon="3.07202">
        <ele>1.650001</ele>
        <time>2005-06-16T11:08:32Z</time>
      </trkpt>
      <trkpt lat="43.11706" lon="3.07217">
        <ele>1.400052</ele>
        <time>2005-06-16T11:08:32Z</time>
      </trkpt>
      <trkpt lat="43.11696" lon="3.07254">
        <ele>1</ele>
        <time>2005-06-16T11:08:32Z</time>
      </trkpt>
      <trkpt lat="43.11696" lon="3.07278">
        <ele>1</ele>
        <time>2005-06-16T11:08:32Z</time>
      </trkpt>
      <trkpt lat="43.11673" lon="3.07355">
        <ele>1</ele>
        <time>2005-06-16T11:08:32Z</time>
      </trkpt>
      <trkpt lat="43.11661" lon="3.0748">
        <ele>1.940023</ele>
        <time>2005-06-16T11:08:32Z</time>
      </trkpt>
      <trkpt lat="43.11654" lon="3.07584">
        <ele>3.550137</ele>
        <time>2005-06-16T11:08:32Z</time>
      </trkpt>
      <trkpt lat="43.11669" lon="3.07588">
        <ele>5.020253</ele>
        <time>2005-06-16T11:08:32Z</time>
      </trkpt>
      <trkpt lat="43.11685" lon="3.07539">
        <ele>3.614919</ele>
        <time>2005-06-16T11:08:32Z</time>
      </trkpt>
      <trkpt lat="43.11782" lon="3.07488">
        <ele>4.199756</ele>
        <time>2005-06-16T11:08:32Z</time>
      </trkpt>
      <trkpt lat="43.11848" lon="3.07427">
        <ele>4.650249</ele>
        <time>2005-06-16T11:08:32Z</time>
      </trkpt>
      <trkpt lat="43.1187" lon="3.07419">
        <ele>5.800007</ele>
        <time>2005-06-16T11:08:32Z</time>
      </trkpt>
      <trkpt lat="43.11947" lon="3.07429">
        <ele>7.249977</ele>
        <time>2005-06-16T11:08:32Z</time>
      </trkpt>
      <trkpt lat="43.11971" lon="3.07417">
        <ele>7.059981</ele>
        <time>2005-06-16T11:08:32Z</time>
      </trkpt>
      <trkpt lat="43.11989" lon="3.0742">
        <ele>7.105038</ele>
        <time>2005-06-16T11:08:32Z</time>
      </trkpt>
      <trkpt lat="43.12144" lon="3.07502">
        <ele>12.727321</ele>
        <time>2005-06-16T11:08:32Z</time>
      </trkpt>
      <trkpt lat="43.12164" lon="3.07505">
        <ele>13.679936</ele>
        <time>2005-06-16T11:08:32Z</time>
      </trkpt>
      <trkpt lat="43.1218" lon="3.07502">
        <ele>14.207533</ele>
        <time>2005-06-16T11:08:32Z</time>
      </trkpt>
      <trkpt lat="43.12189" lon="3.07472">
        <ele>15.447392</ele>
        <time>2005-06-16T11:08:32Z</time>
      </trkpt>
      <trkpt lat="43.12202" lon="3.07466">
        <ele>16.497538</ele>
        <time>2005-06-16T11:08:32Z</time>
      </trkpt>
      <trkpt lat="43.1224" lon="3.07497">
        <ele>17.985085</ele>
        <time>2005-06-16T11:08:32Z</time>
      </trkpt>
      <trkpt lat="43.12267" lon="3.07522">
        <ele>20.194822</ele>
        <time>2005-06-16T11:08:32Z</time>
      </trkpt>
      <trkpt lat="43.12301" lon="3.07501">
        <ele>21.464977</ele>
        <time>2005-06-16T11:08:32Z</time>
      </trkpt>
      <trkpt lat="43.12326" lon="3.07498">
        <ele>22.530079</ele>
        <time>2005-06-16T11:08:32Z</time>
      </trkpt>
      <trkpt lat="43.12319" lon="3.07565">
        <ele>24.766853</ele>
        <time>2005-06-16T11:08:32Z</time>
      </trkpt>
      <trkpt lat="43.12314" lon="3.07608">
        <ele>26.315369</ele>
        <time>2005-06-16T11:08:32Z</time>
      </trkpt>
      <trkpt lat="43.12304" lon="3.07651">
        <ele>30.700569</ele>
        <time>2005-06-16T11:08:32Z</time>
      </trkpt>
      <trkpt lat="43.12293" lon="3.07691">
        <ele>32.59967</ele>
        <time>2005-06-16T11:08:32Z</time>
      </trkpt>
      <trkpt lat="43.12286" lon="3.07743">
        <ele>34.996395</ele>
        <time>2005-06-16T11:08:32Z</time>
      </trkpt>
      <trkpt lat="43.12288" lon="3.07776">
        <ele>36.560406</ele>
        <time>2005-06-16T11:08:32Z</time>
      </trkpt>
      <trkpt lat="43.12297" lon="3.07823">
        <ele>40.339962</ele>
        <time>2005-06-16T11:08:32Z</time>
      </trkpt>
      <trkpt lat="43.12321" lon="3.07878">
        <ele>41.962738</ele>
        <time>2005-06-16T11:08:32Z</time>
      </trkpt>
      <trkpt lat="43.12338" lon="3.07946">
        <ele>39.865257</ele>
        <time>2005-06-16T11:08:32Z</time>
      </trkpt>
      <trkpt lat="43.12383" lon="3.07999">
        <ele>38.929935</ele>
        <time>2005-06-16T11:08:32Z</time>
      </trkpt>
      <trkpt lat="43.12408" lon="3.08008">
        <ele>42.965176</ele>
        <time>2005-06-16T11:08:32Z</time>
      </trkpt>
      <trkpt lat="43.12448" lon="3.08045">
        <ele>48.349224</ele>
        <time>2005-06-16T11:08:32Z</time>
      </trkpt>
      <trkpt lat="43.12492" lon="3.0808">
        <ele>54.99995</ele>
        <time>2005-06-16T11:08:32Z</time>
      </trkpt>
      <trkpt lat="43.12533" lon="3.08105">
        <ele>61.09108</ele>
        <time>2005-06-16T11:08:32Z</time>
      </trkpt>
      <trkpt lat="43.12559" lon="3.08136">
        <ele>61.301353</ele>
        <time>2005-06-16T11:08:32Z</time>
      </trkpt>
      <trkpt lat="43.12604" lon="3.08182">
        <ele>62.60006</ele>
        <time>2005-06-16T11:08:32Z</time>
      </trkpt>
      <trkpt lat="43.12617" lon="3.08195">
        <ele>63.140198</ele>
        <time>2005-06-16T11:08:32Z</time>
      </trkpt>
      <trkpt lat="43.12635" lon="3.08201">
        <ele>64.729866</ele>
        <time>2005-06-16T11:08:32Z</time>
      </trkpt>
      <trkpt lat="43.12647" lon="3.08213">
        <ele>65.747787</ele>
        <time>2005-06-16T11:08:32Z</time>
      </trkpt>
      <trkpt lat="43.12633" lon="3.08241">
        <ele>64.654678</ele>
        <time>2005-06-16T11:08:32Z</time>
      </trkpt>
      <trkpt lat="43.12621" lon="3.08287">
        <ele>65.724754</ele>
        <time>2005-06-16T11:08:32Z</time>
      </trkpt>
      <trkpt lat="43.12612" lon="3.0836">
        <ele>65.613258</ele>
        <time>2005-06-16T11:08:32Z</time>
      </trkpt>
      <trkpt lat="43.12609" lon="3.08431">
        <ele>64.940857</ele>
        <time>2005-06-16T11:08:32Z</time>
      </trkpt>
      <trkpt lat="43.12602" lon="3.08467">
        <ele>62.899109</ele>
        <time>2005-06-16T11:08:32Z</time>
      </trkpt>
      <trkpt lat="43.12588" lon="3.08492">
        <ele>59.480583</ele>
        <time>2005-06-16T11:08:32Z</time>
      </trkpt>
      <trkpt lat="43.12559" lon="3.0851">
        <ele>56.099949</ele>
        <time>2005-06-16T11:08:32Z</time>
      </trkpt>
      <trkpt lat="43.1253" lon="3.08509">
        <ele>55.000111</ele>
        <time>2005-06-16T11:08:32Z</time>
      </trkpt>
      <trkpt lat="43.12503" lon="3.08478">
        <ele>54.699497</ele>
        <time>2005-06-16T11:08:32Z</time>
      </trkpt>
      <trkpt lat="43.12483" lon="3.0849">
        <ele>55</ele>
        <time>2005-06-16T11:08:32Z</time>
      </trkpt>
      <trkpt lat="43.12487" lon="3.08558">
        <ele>55</ele>
        <time>2005-06-16T11:08:32Z</time>
      </trkpt>
      <trkpt lat="43.1248" lon="3.08601">
        <ele>55</ele>
        <time>2005-06-16T11:08:32Z</time>
      </trkpt>
      <trkpt lat="43.1248" lon="3.08638">
        <ele>55</ele>
        <time>2005-06-16T11:08:32Z</time>
      </trkpt>
      <trkpt lat="43.12486" lon="3.08674">
        <ele>54.989979</ele>
        <time>2005-06-16T11:08:32Z</time>
      </trkpt>
      <trkpt lat="43.12504" lon="3.08736">
        <ele>54.669903</ele>
        <time>2005-06-16T11:08:32Z</time>
      </trkpt>
      <trkpt lat="43.1251" lon="3.08767">
        <ele>53.949978</ele>
        <time>2005-06-16T11:08:32Z</time>
      </trkpt>
      <trkpt lat="43.12501" lon="3.08807">
        <ele>52.180096</ele>
        <time>2005-06-16T11:08:32Z</time>
      </trkpt>
      <trkpt lat="43.12505" lon="3.08825">
        <ele>51.059746</ele>
        <time>2005-06-16T11:08:32Z</time>
      </trkpt>
      <trkpt lat="43.12534" lon="3.0885">
        <ele>47.307907</ele>
        <time>2005-06-16T11:08:32Z</time>
      </trkpt>
      <trkpt lat="43.12541" lon="3.08868">
        <ele>44.5107</ele>
        <time>2005-06-16T11:08:32Z</time>
      </trkpt>
      <trkpt lat="43.1254" lon="3.08927">
        <ele>40.280632</ele>
        <time>2005-06-16T11:08:32Z</time>
      </trkpt>
      <trkpt lat="43.12554" lon="3.08957">
        <ele>37.09935</ele>
        <time>2005-06-16T11:08:32Z</time>
      </trkpt>
      <trkpt lat="43.1256" lon="3.08988">
        <ele>35.254704</ele>
        <time>2005-06-16T11:08:32Z</time>
      </trkpt>
      <trkpt lat="43.12569" lon="3.09007">
        <ele>33.540436</ele>
        <time>2005-06-16T11:08:32Z</time>
      </trkpt>
      <trkpt lat="43.12589" lon="3.09028">
        <ele>30.879522</ele>
        <time>2005-06-16T11:08:32Z</time>
      </trkpt>
      <trkpt lat="43.12591" lon="3.09124">
        <ele>25.300156</ele>
        <time>2005-06-16T11:08:32Z</time>
      </trkpt>
      <trkpt lat="43.12579" lon="3.09163">
        <ele>23.6152</ele>
        <time>2005-06-16T11:08:32Z</time>
      </trkpt>
      <trkpt lat="43.12577" lon="3.09218">
        <ele>21.952459</ele>
        <time>2005-06-16T11:08:32Z</time>
      </trkpt>
      <trkpt lat="43.1257" lon="3.09249">
        <ele>21.929663</ele>
        <time>2005-06-16T11:08:32Z</time>
      </trkpt>
      <trkpt lat="43.12485" lon="3.09509">
        <ele>19.900084</ele>
        <time>2005-06-16T11:08:32Z</time>
      </trkpt>
      <trkpt lat="43.12521" lon="3.09518">
        <ele>21.650032</ele>
        <time>2005-06-16T11:08:32Z</time>
      </trkpt>
      <trkpt lat="43.12626" lon="3.09523">
        <ele>25.800337</ele>
        <time>2005-06-16T11:08:32Z</time>
      </trkpt>
      <trkpt lat="43.12617" lon="3.09575">
        <ele>28.399679</ele>
        <time>2005-06-16T11:08:32Z</time>
      </trkpt>
      <trkpt lat="43.12587" lon="3.09626">
        <ele>30.230288</ele>
        <time>2005-06-16T11:08:32Z</time>
      </trkpt>
      <trkpt lat="43.12549" lon="3.09687">
        <ele>29.349138</ele>
        <time>2005-06-16T11:08:32Z</time>
      </trkpt>
      <trkpt lat="43.12519" lon="3.09748">
        <ele>25.779707</ele>
        <time>2005-06-16T11:08:32Z</time>
      </trkpt>
      <trkpt lat="43.1253" lon="3.0984">
        <ele>24.680109</ele>
        <time>2005-06-16T11:08:32Z</time>
      </trkpt>
      <trkpt lat="43.1252" lon="3.09914">
        <ele>21.499683</ele>
        <time>2005-06-16T11:08:32Z</time>
      </trkpt>
      <trkpt lat="43.1251" lon="3.0999">
        <ele>19.39469</ele>
        <time>2005-06-16T11:08:32Z</time>
      </trkpt>
      <trkpt lat="43.12497" lon="3.10051">
        <ele>17.859737</ele>
        <time>2005-06-16T11:08:32Z</time>
      </trkpt>
      <trkpt lat="43.12507" lon="3.10131">
        <ele>20.816814</ele>
        <time>2005-06-16T11:08:32Z</time>
      </trkpt>
      <trkpt lat="43.12512" lon="3.10156">
        <ele>21.849703</ele>
        <time>2005-06-16T11:08:32Z</time>
      </trkpt>
      <trkpt lat="43.12504" lon="3.10288">
        <ele>20.899601</ele>
        <time>2005-06-16T11:08:32Z</time>
      </trkpt>
      <trkpt lat="43.12531" lon="3.10325">
        <ele>21.739765</ele>
        <time>2005-06-16T11:08:32Z</time>
      </trkpt>
      <trkpt lat="43.12558" lon="3.10325">
        <ele>23.95966</ele>
        <time>2005-06-16T11:08:32Z</time>
      </trkpt>
      <trkpt lat="43.12582" lon="3.10322">
        <ele>23.730434</ele>
        <time>2005-06-16T11:08:32Z</time>
      </trkpt>
      <trkpt lat="43.12632" lon="3.10271">
        <ele>23.729578</ele>
        <time>2005-06-16T11:08:32Z</time>
      </trkpt>
      <trkpt lat="43.12653" lon="3.10222">
        <ele>29.180428</ele>
        <time>2005-06-16T11:08:32Z</time>
      </trkpt>
      <trkpt lat="43.12707" lon="3.10189">
        <ele>27.509779</ele>
        <time>2005-06-16T11:08:32Z</time>
      </trkpt>
      <trkpt lat="43.12729" lon="3.10199">
        <ele>26.599607</ele>
        <time>2005-06-16T11:08:32Z</time>
      </trkpt>
      <trkpt lat="43.12765" lon="3.10267">
        <ele>20.960226</ele>
        <time>2005-06-16T11:08:32Z</time>
      </trkpt>
      <trkpt lat="43.12785" lon="3.10276">
        <ele>20.637627</ele>
        <time>2005-06-16T11:08:32Z</time>
      </trkpt>
      <trkpt lat="43.1283" lon="3.10267">
        <ele>19.290258</ele>
        <time>2005-06-16T11:08:32Z</time>
      </trkpt>
      <trkpt lat="43.12942" lon="3.10275">
        <ele>22.629997</ele>
        <time>2005-06-16T11:08:32Z</time>
      </trkpt>
      <trkpt lat="43.13009" lon="3.10282">
        <ele>24.549807</ele>
        <time>2005-06-16T11:08:32Z</time>
      </trkpt>
      <trkpt lat="43.13056" lon="3.10301">
        <ele>24.760052</ele>
        <time>2005-06-16T11:08:32Z</time>
      </trkpt>
      <trkpt lat="43.13081" lon="3.10335">
        <ele>24.749842</ele>
        <time>2005-06-16T11:08:32Z</time>
      </trkpt>
      <trkpt lat="43.13146" lon="3.10394">
        <ele>28.089848</ele>
        <time>2005-06-16T11:08:32Z</time>
      </trkpt>
      <trkpt lat="43.13192" lon="3.10429">
        <ele>29.300173</ele>
        <time>2005-06-16T11:08:32Z</time>
      </trkpt>
      <trkpt lat="43.13246" lon="3.10445">
        <ele>31.08515</ele>
        <time>2005-06-16T11:08:32Z</time>
      </trkpt>
      <trkpt lat="43.13311" lon="3.10443">
        <ele>34.440437</ele>
        <time>2005-06-16T11:08:32Z</time>
      </trkpt>
      <trkpt lat="43.13336" lon="3.10425">
        <ele>35.549946</ele>
        <time>2005-06-16T11:08:32Z</time>
      </trkpt>
      <trkpt lat="43.13372" lon="3.10391">
        <ele>36.849884</ele>
        <time>2005-06-16T11:08:32Z</time>
      </trkpt>
      <trkpt lat="43.13397" lon="3.10395">
        <ele>38.574852</ele>
        <time>2005-06-16T11:08:32Z</time>
      </trkpt>
      <trkpt lat="43.13428" lon="3.10438">
        <ele>41.249981</ele>
        <time>2005-06-16T11:08:32Z</time>
      </trkpt>
      <trkpt lat="43.13489" lon="3.10476">
        <ele>44.777569</ele>
        <time>2005-06-16T11:08:32Z</time>
      </trkpt>
      <trkpt lat="43.13533" lon="3.1058">
        <ele>49.622375</ele>
        <time>2005-06-16T11:08:32Z</time>
      </trkpt>
      <trkpt lat="43.13591" lon="3.10676">
        <ele>53.830292</ele>
        <time>2005-06-16T11:08:32Z</time>
      </trkpt>
      <trkpt lat="43.13608" lon="3.10689">
        <ele>56.450603</ele>
        <time>2005-06-16T11:08:32Z</time>
      </trkpt>
      <trkpt lat="43.13638" lon="3.10665">
        <ele>56.299484</ele>
        <time>2005-06-16T11:08:32Z</time>
      </trkpt>
      <trkpt lat="43.13665" lon="3.10647">
        <ele>56.649246</ele>
        <time>2005-06-16T11:08:32Z</time>
      </trkpt>
      <trkpt lat="43.13708" lon="3.10583">
        <ele>54.63258</ele>
        <time>2005-06-16T11:08:32Z</time>
      </trkpt>
      <trkpt lat="43.13735" lon="3.10583">
        <ele>55.095036</ele>
        <time>2005-06-16T11:08:32Z</time>
      </trkpt>
      <trkpt lat="43.13753" lon="3.10599">
        <ele>55.329922</ele>
        <time>2005-06-16T11:08:32Z</time>
      </trkpt>
      <trkpt lat="43.1377" lon="3.10642">
        <ele>55.299957</ele>
        <time>2005-06-16T11:08:32Z</time>
      </trkpt>
      <trkpt lat="43.13793" lon="3.10673">
        <ele>55.149982</ele>
        <time>2005-06-16T11:08:32Z</time>
      </trkpt>
      <trkpt lat="43.13842" lon="3.1072">
        <ele>53.437557</ele>
        <time>2005-06-16T11:08:32Z</time>
      </trkpt>
      <trkpt lat="43.139" lon="3.10766">
        <ele>50.499844</ele>
        <time>2005-06-16T11:08:32Z</time>
      </trkpt>
      <trkpt lat="43.13915" lon="3.10785">
        <ele>50.199883</ele>
        <time>2005-06-16T11:08:32Z</time>
      </trkpt>
      <trkpt lat="43.13935" lon="3.10819">
        <ele>50.299957</ele>
        <time>2005-06-16T11:08:32Z</time>
      </trkpt>
      <trkpt lat="43.13949" lon="3.10859">
        <ele>49.724934</ele>
        <time>2005-06-16T11:08:32Z</time>
      </trkpt>
      <trkpt lat="43.13984" lon="3.10902">
        <ele>47.490227</ele>
        <time>2005-06-16T11:08:32Z</time>
      </trkpt>
      <trkpt lat="43.14029" lon="3.10928">
        <ele>43.699909</ele>
        <time>2005-06-16T11:08:32Z</time>
      </trkpt>
      <trkpt lat="43.14076" lon="3.10901">
        <ele>44.270042</ele>
        <time>2005-06-16T11:08:32Z</time>
      </trkpt>
      <trkpt lat="43.14099" lon="3.10928">
        <ele>43.919827</ele>
        <time>2005-06-16T11:08:32Z</time>
      </trkpt>
      <trkpt lat="43.14103" lon="3.10947">
        <ele>43.969742</ele>
        <time>2005-06-16T11:08:32Z</time>
      </trkpt>
      <trkpt lat="43.14141" lon="3.10954">
        <ele>46.449905</ele>
        <time>2005-06-16T11:08:32Z</time>
      </trkpt>
      <trkpt lat="43.14168" lon="3.10951">
        <ele>48.212837</ele>
        <time>2005-06-16T11:08:32Z</time>
      </trkpt>
      <trkpt lat="43.14177" lon="3.10988">
        <ele>48.932358</ele>
        <time>2005-06-16T11:08:32Z</time>
      </trkpt>
      <trkpt lat="43.14177" lon="3.11022">
        <ele>49.299896</ele>
        <time>2005-06-16T11:08:32Z</time>
      </trkpt>
      <trkpt lat="43.14212" lon="3.11037">
        <ele>51.287594</ele>
        <time>2005-06-16T11:08:32Z</time>
      </trkpt>
      <trkpt lat="43.14269" lon="3.11038">
        <ele>55.350311</ele>
        <time>2005-06-16T11:08:32Z</time>
      </trkpt>
      <trkpt lat="43.14338" lon="3.11027">
        <ele>59.812508</ele>
        <time>2005-06-16T11:08:32Z</time>
      </trkpt>
      <trkpt lat="43.14363" lon="3.11036">
        <ele>60.390091</ele>
        <time>2005-06-16T11:08:32Z</time>
      </trkpt>
      <trkpt lat="43.14394" lon="3.1104">
        <ele>61.189682</ele>
        <time>2005-06-16T11:08:32Z</time>
      </trkpt>
      <trkpt lat="43.1443" lon="3.11053">
        <ele>64.270164</ele>
        <time>2005-06-16T11:08:32Z</time>
      </trkpt>
      <trkpt lat="43.14446" lon="3.11062">
        <ele>65.935303</ele>
        <time>2005-06-16T11:08:32Z</time>
      </trkpt>
      <trkpt lat="43.14464" lon="3.11065">
        <ele>67.474945</ele>
        <time>2005-06-16T11:08:32Z</time>
      </trkpt>
      <trkpt lat="43.14477" lon="3.11078">
        <ele>69.385132</ele>
        <time>2005-06-16T11:08:32Z</time>
      </trkpt>
      <trkpt lat="43.14477" lon="3.11105">
        <ele>70.279839</ele>
        <time>2005-06-16T11:08:32Z</time>
      </trkpt>
      <trkpt lat="43.14501" lon="3.11149">
        <ele>72.600189</ele>
        <time>2005-06-16T11:08:32Z</time>
      </trkpt>
      <trkpt lat="43.14515" lon="3.11155">
        <ele>73.399918</ele>
        <time>2005-06-16T11:08:32Z</time>
      </trkpt>
      <trkpt lat="43.14576" lon="3.11107">
        <ele>76.209755</ele>
        <time>2005-06-16T11:08:32Z</time>
      </trkpt>
      <trkpt lat="43.14641" lon="3.1104">
        <ele>80.140274</ele>
        <time>2005-06-16T11:08:32Z</time>
      </trkpt>
      <trkpt lat="43.1468" lon="3.11004">
        <ele>84.754967</ele>
        <time>2005-06-16T11:08:32Z</time>
      </trkpt>
      <trkpt lat="43.14714" lon="3.10986">
        <ele>87.260078</ele>
        <time>2005-06-16T11:08:32Z</time>
      </trkpt>
      <trkpt lat="43.14725" lon="3.10992">
        <ele>87.075287</ele>
        <time>2005-06-16T11:08:32Z</time>
      </trkpt>
      <trkpt lat="43.14704" lon="3.11041">
        <ele>82.660072</ele>
        <time>2005-06-16T11:08:32Z</time>
      </trkpt>
      <trkpt lat="43.14677" lon="3.1108">
        <ele>79.96991</ele>
        <time>2005-06-16T11:08:32Z</time>
      </trkpt>
      <trkpt lat="43.14654" lon="3.11126">
        <ele>75.380661</ele>
        <time>2005-06-16T11:08:32Z</time>
      </trkpt>
      <trkpt lat="43.14607" lon="3.11172">
        <ele>73.220238</ele>
        <time>2005-06-16T11:08:32Z</time>
      </trkpt>
      <trkpt lat="43.14543" lon="3.11229">
        <ele>72.969856</ele>
        <time>2005-06-16T11:08:32Z</time>
      </trkpt>
      <trkpt lat="43.14514" lon="3.1125">
        <ele>72.375114</ele>
        <time>2005-06-16T11:08:32Z</time>
      </trkpt>
      <trkpt lat="43.1448" lon="3.11286">
        <ele>70.912727</ele>
        <time>2005-06-16T11:08:32Z</time>
      </trkpt>
      <trkpt lat="43.14448" lon="3.11338">
        <ele>71.259453</ele>
        <time>2005-06-16T11:08:32Z</time>
      </trkpt>
      <trkpt lat="43.14435" lon="3.11359">
        <ele>70.399895</ele>
        <time>2005-06-16T11:08:32Z</time>
      </trkpt>
      <trkpt lat="43.14399" lon="3.11365">
        <ele>68.599899</ele>
        <time>2005-06-16T11:08:32Z</time>
      </trkpt>
      <trkpt lat="43.14363" lon="3.11377">
        <ele>66.599922</ele>
        <time>2005-06-16T11:08:32Z</time>
      </trkpt>
      <trkpt lat="43.1434" lon="3.11395">
        <ele>65.552544</ele>
        <time>2005-06-16T11:08:32Z</time>
      </trkpt>
      <trkpt lat="43.14304" lon="3.1144">
        <ele>64.850067</ele>
        <time>2005-06-16T11:08:32Z</time>
      </trkpt>
      <trkpt lat="43.1427" lon="3.11517">
        <ele>63.850056</ele>
        <time>2005-06-16T11:08:32Z</time>
      </trkpt>
      <trkpt lat="43.14263" lon="3.11544">
        <ele>63.329849</ele>
        <time>2005-06-16T11:08:32Z</time>
      </trkpt>
      <trkpt lat="43.14278" lon="3.11655">
        <ele>61.240036</ele>
        <time>2005-06-16T11:08:32Z</time>
      </trkpt>
      <trkpt lat="43.14286" lon="3.11692">
        <ele>59.500084</ele>
        <time>2005-06-16T11:08:32Z</time>
      </trkpt>
      <trkpt lat="43.14306" lon="3.1172">
        <ele>57.767956</ele>
        <time>2005-06-16T11:08:32Z</time>
      </trkpt>
      <trkpt lat="43.14324" lon="3.11787">
        <ele>55.667648</ele>
        <time>2005-06-16T11:08:32Z</time>
      </trkpt>
      <trkpt lat="43.14339" lon="3.11827">
        <ele>50.940975</ele>
        <time>2005-06-16T11:08:32Z</time>
      </trkpt>
      <trkpt lat="43.14348" lon="3.11855">
        <ele>47.408909</ele>
        <time>2005-06-16T11:08:32Z</time>
      </trkpt>
      <trkpt lat="43.14352" lon="3.11944">
        <ele>50.100327</ele>
        <time>2005-06-16T11:08:32Z</time>
      </trkpt>
      <trkpt lat="43.14405" lon="3.12065">
        <ele>46.360645</ele>
        <time>2005-06-16T11:08:32Z</time>
      </trkpt>
      <trkpt lat="43.1442" lon="3.12089">
        <ele>42.436192</ele>
        <time>2005-06-16T11:08:32Z</time>
      </trkpt>
      <trkpt lat="43.14463" lon="3.1213">
        <ele>36.449673</ele>
        <time>2005-06-16T11:08:32Z</time>
      </trkpt>
      <trkpt lat="43.14472" lon="3.12148">
        <ele>35.139641</ele>
        <time>2005-06-16T11:08:32Z</time>
      </trkpt>
      <trkpt lat="43.14508" lon="3.12149">
        <ele>35.199673</ele>
        <time>2005-06-16T11:08:32Z</time>
      </trkpt>
      <trkpt lat="43.1453" lon="3.1218">
        <ele>34.499947</ele>
        <time>2005-06-16T11:08:32Z</time>
      </trkpt>
      <trkpt lat="43.14547" lon="3.12235">
        <ele>34.079639</ele>
        <time>2005-06-16T11:08:32Z</time>
      </trkpt>
      <trkpt lat="43.14554" lon="3.12287">
        <ele>32.677525</ele>
        <time>2005-06-16T11:08:32Z</time>
      </trkpt>
      <trkpt lat="43.14574" lon="3.12343">
        <ele>33.450047</ele>
        <time>2005-06-16T11:08:32Z</time>
      </trkpt>
      <trkpt lat="43.14577" lon="3.12423">
        <ele>32.650326</ele>
        <time>2005-06-16T11:08:32Z</time>
      </trkpt>
      <trkpt lat="43.1457" lon="3.12447">
        <ele>31.262474</ele>
        <time>2005-06-16T11:08:32Z</time>
      </trkpt>
      <trkpt lat="43.14564" lon="3.12472">
        <ele>29.829966</ele>
        <time>2005-06-16T11:08:32Z</time>
      </trkpt>
      <trkpt lat="43.14585" lon="3.12607">
        <ele>26.145084</ele>
        <time>2005-06-16T11:08:32Z</time>
      </trkpt>
      <trkpt lat="43.14562" lon="3.1264">
        <ele>27.240826</ele>
        <time>2005-06-16T11:08:32Z</time>
      </trkpt>
      <trkpt lat="43.1456" lon="3.12699">
        <ele>32.636078</ele>
        <time>2005-06-16T11:08:32Z</time>
      </trkpt>
      <trkpt lat="43.14577" lon="3.12729">
        <ele>32.13446</ele>
        <time>2005-06-16T11:08:32Z</time>
      </trkpt>
      <trkpt lat="43.14624" lon="3.12758">
        <ele>26.94113</ele>
        <time>2005-06-16T11:08:32Z</time>
      </trkpt>
      <trkpt lat="43.14642" lon="3.1281">
        <ele>30.978979</ele>
        <time>2005-06-16T11:08:32Z</time>
      </trkpt>
      <trkpt lat="43.14691" lon="3.12841">
        <ele>22.025393</ele>
        <time>2005-06-16T11:08:32Z</time>
      </trkpt>
      <trkpt lat="43.14707" lon="3.12869">
        <ele>19.710201</ele>
        <time>2005-06-16T11:08:32Z</time>
      </trkpt>
      <trkpt lat="43.14708" lon="3.12931">
        <ele>16.650045</ele>
        <time>2005-06-16T11:08:32Z</time>
      </trkpt>
      <trkpt lat="43.14686" lon="3.12952">
        <ele>19.718245</ele>
        <time>2005-06-16T11:08:32Z</time>
      </trkpt>
      <trkpt lat="43.1467" lon="3.12979">
        <ele>21.424467</ele>
        <time>2005-06-16T11:08:32Z</time>
      </trkpt>
      <trkpt lat="43.14659" lon="3.13185">
        <ele>8.462301</ele>
        <time>2005-06-16T11:08:32Z</time>
      </trkpt>
      <trkpt lat="43.14627" lon="3.13255">
        <ele>8.550025</ele>
        <time>2005-06-16T11:08:32Z</time>
      </trkpt>
      <trkpt lat="43.14587" lon="3.13309">
        <ele>8.755574</ele>
        <time>2005-06-16T11:08:32Z</time>
      </trkpt>
      <trkpt lat="43.14564" lon="3.1337">
        <ele>6.759671</ele>
        <time>2005-06-16T11:08:32Z</time>
      </trkpt>
      <trkpt lat="43.14534" lon="3.13404">
        <ele>5.079316</ele>
        <time>2005-06-16T11:08:32Z</time>
      </trkpt>
      <trkpt lat="43.14509" lon="3.13407">
        <ele>4.875118</ele>
        <time>2005-06-16T11:08:32Z</time>
      </trkpt>
      <trkpt lat="43.14476" lon="3.13385">
        <ele>4.900128</ele>
        <time>2005-06-16T11:08:32Z</time>
      </trkpt>
      <trkpt lat="43.14438" lon="3.13347">
        <ele>4.62224</ele>
        <time>2005-06-16T11:08:32Z</time>
      </trkpt>
      <trkpt lat="43.14304" lon="3.13309">
        <ele>3.194862</ele>
        <time>2005-06-16T11:08:32Z</time>
      </trkpt>
      <trkpt lat="43.1429" lon="3.1329">
        <ele>3</ele>
        <time>2005-06-16T11:08:32Z</time>
      </trkpt>
      <trkpt lat="43.14237" lon="3.13231">
        <ele>7.184714</ele>
        <time>2005-06-16T11:08:32Z</time>
      </trkpt>
      <trkpt lat="43.14203" lon="3.13218">
        <ele>7.460118</ele>
        <time>2005-06-16T11:08:32Z</time>
      </trkpt>
      <trkpt lat="43.14161" lon="3.13184">
        <ele>7.014771</ele>
        <time>2005-06-16T11:08:32Z</time>
      </trkpt>
      <trkpt lat="43.14168" lon="3.13147">
        <ele>10.400352</ele>
        <time>2005-06-16T11:08:32Z</time>
      </trkpt>
      <trkpt lat="43.14195" lon="3.13105">
        <ele>14.47982</ele>
        <time>2005-06-16T11:08:32Z</time>
      </trkpt>
      <trkpt lat="43.14254" lon="3.1298">
        <ele>21.000551</ele>
        <time>2005-06-16T11:08:32Z</time>
      </trkpt>
      <trkpt lat="43.14289" lon="3.12876">
        <ele>26.650314</ele>
        <time>2005-06-16T11:08:32Z</time>
      </trkpt>
      <trkpt lat="43.14289" lon="3.12845">
        <ele>28.249762</ele>
        <time>2005-06-16T11:08:32Z</time>
      </trkpt>
      <trkpt lat="43.14287" lon="3.12778">
        <ele>33.190136</ele>
        <time>2005-06-16T11:08:32Z</time>
      </trkpt>
      <trkpt lat="43.14297" lon="3.12701">
        <ele>34.150089</ele>
        <time>2005-06-16T11:08:32Z</time>
      </trkpt>
      <trkpt lat="43.14291" lon="3.1263">
        <ele>36.725281</ele>
        <time>2005-06-16T11:08:32Z</time>
      </trkpt>
      <trkpt lat="43.14279" lon="3.12667">
        <ele>37.149998</ele>
        <time>2005-06-16T11:08:32Z</time>
      </trkpt>
      <trkpt lat="43.14276" lon="3.12744">
        <ele>35.917747</ele>
        <time>2005-06-16T11:08:32Z</time>
      </trkpt>
      <trkpt lat="43.14276" lon="3.12765">
        <ele>35.025482</ele>
        <time>2005-06-16T11:08:32Z</time>
      </trkpt>
      <trkpt lat="43.14263" lon="3.12787">
        <ele>35.677284</ele>
        <time>2005-06-16T11:08:32Z</time>
      </trkpt>
      <trkpt lat="43.14224" lon="3.12795">
        <ele>40.199562</ele>
        <time>2005-06-16T11:08:32Z</time>
      </trkpt>
      <trkpt lat="43.14188" lon="3.12813">
        <ele>42.949463</ele>
        <time>2005-06-16T11:08:32Z</time>
      </trkpt>
      <trkpt lat="43.1417" lon="3.12807">
        <ele>44.980625</ele>
        <time>2005-06-16T11:08:32Z</time>
      </trkpt>
      <trkpt lat="43.14137" lon="3.1276">
        <ele>47.649754</ele>
        <time>2005-06-16T11:08:32Z</time>
      </trkpt>
      <trkpt lat="43.14126" lon="3.12714">
        <ele>49.630138</ele>
        <time>2005-06-16T11:08:32Z</time>
      </trkpt>
      <trkpt lat="43.14124" lon="3.1265">
        <ele>51.749832</ele>
        <time>2005-06-16T11:08:32Z</time>
      </trkpt>
      <trkpt lat="43.14113" lon="3.1264">
        <ele>51.60009</ele>
        <time>2005-06-16T11:08:32Z</time>
      </trkpt>
      <trkpt lat="43.14012" lon="3.12642">
        <ele>44.997925</ele>
        <time>2005-06-16T11:08:32Z</time>
      </trkpt>
      <trkpt lat="43.14012" lon="3.12593">
        <ele>45.000378</ele>
        <time>2005-06-16T11:08:32Z</time>
      </trkpt>
      <trkpt lat="43.14022" lon="3.12532">
        <ele>46.249847</ele>
        <time>2005-06-16T11:08:32Z</time>
      </trkpt>
      <trkpt lat="43.14035" lon="3.12501">
        <ele>47.474873</ele>
        <time>2005-06-16T11:08:32Z</time>
      </trkpt>
      <trkpt lat="43.14056" lon="3.12471">
        <ele>48.249775</ele>
        <time>2005-06-16T11:08:32Z</time>
      </trkpt>
      <trkpt lat="43.14061" lon="3.1244">
        <ele>46.400112</ele>
        <time>2005-06-16T11:08:32Z</time>
      </trkpt>
      <trkpt lat="43.14059" lon="3.12422">
        <ele>44.840458</ele>
        <time>2005-06-16T11:08:32Z</time>
      </trkpt>
      <trkpt lat="43.14012" lon="3.12363">
        <ele>42.000099</ele>
        <time>2005-06-16T11:08:32Z</time>
      </trkpt>
      <trkpt lat="43.13972" lon="3.12338">
        <ele>41.240116</ele>
        <time>2005-06-16T11:08:32Z</time>
      </trkpt>
      <trkpt lat="43.13954" lon="3.1231">
        <ele>43.020359</ele>
        <time>2005-06-16T11:08:32Z</time>
      </trkpt>
      <trkpt lat="43.13968" lon="3.12215">
        <ele>49.000195</ele>
        <time>2005-06-16T11:08:32Z</time>
      </trkpt>
      <trkpt lat="43.13989" lon="3.1209">
        <ele>53.705193</ele>
        <time>2005-06-16T11:08:32Z</time>
      </trkpt>
      <trkpt lat="43.1401" lon="3.12032">
        <ele>55.720268</ele>
        <time>2005-06-16T11:08:32Z</time>
      </trkpt>
      <trkpt lat="43.14017" lon="3.11992">
        <ele>56.973053</ele>
        <time>2005-06-16T11:08:32Z</time>
      </trkpt>
      <trkpt lat="43.13999" lon="3.11927">
        <ele>54.695107</ele>
        <time>2005-06-16T11:08:32Z</time>
      </trkpt>
      <trkpt lat="43.13938" lon="3.11969">
        <ele>53.680687</ele>
        <time>2005-06-16T11:08:32Z</time>
      </trkpt>
      <trkpt lat="43.13875" lon="3.12088">
        <ele>47.80027</ele>
        <time>2005-06-16T11:08:32Z</time>
      </trkpt>
      <trkpt lat="43.13845" lon="3.12124">
        <ele>46.011711</ele>
        <time>2005-06-16T11:08:32Z</time>
      </trkpt>
      <trkpt lat="43.13809" lon="3.12158">
        <ele>43.835205</ele>
        <time>2005-06-16T11:08:32Z</time>
      </trkpt>
      <trkpt lat="43.13768" lon="3.12182">
        <ele>42.544659</ele>
        <time>2005-06-16T11:08:32Z</time>
      </trkpt>
      <trkpt lat="43.13743" lon="3.12206">
        <ele>41.750305</ele>
        <time>2005-06-16T11:08:32Z</time>
      </trkpt>
      <trkpt lat="43.13705" lon="3.12273">
        <ele>39.51009</ele>
        <time>2005-06-16T11:08:32Z</time>
      </trkpt>
      <trkpt lat="43.13661" lon="3.12349">
        <ele>38.260231</ele>
        <time>2005-06-16T11:08:32Z</time>
      </trkpt>
      <trkpt lat="43.13648" lon="3.1237">
        <ele>38.359806</ele>
        <time>2005-06-16T11:08:32Z</time>
      </trkpt>
      <trkpt lat="43.13587" lon="3.12425">
        <ele>35.454979</ele>
        <time>2005-06-16T11:08:32Z</time>
      </trkpt>
      <trkpt lat="43.13551" lon="3.1247">
        <ele>32.062527</ele>
        <time>2005-06-16T11:08:32Z</time>
      </trkpt>
      <trkpt lat="43.13528" lon="3.12503">
        <ele>29.699797</ele>
        <time>2005-06-16T11:08:32Z</time>
      </trkpt>
      <trkpt lat="43.13476" lon="3.12549">
        <ele>25.110367</ele>
        <time>2005-06-16T11:08:32Z</time>
      </trkpt>
      <trkpt lat="43.13433" lon="3.1256">
        <ele>20.744886</ele>
        <time>2005-06-16T11:08:32Z</time>
      </trkpt>
      <trkpt lat="43.13397" lon="3.12538">
        <ele>17.549503</ele>
        <time>2005-06-16T11:08:32Z</time>
      </trkpt>
      <trkpt lat="43.13354" lon="3.12581">
        <ele>12.760361</ele>
        <time>2005-06-16T11:08:32Z</time>
      </trkpt>
      <trkpt lat="43.13325" lon="3.12611">
        <ele>9.799902</ele>
        <time>2005-06-16T11:08:32Z</time>
      </trkpt>
      <trkpt lat="43.13284" lon="3.12611">
        <ele>5.690457</ele>
        <time>2005-06-16T11:08:32Z</time>
      </trkpt>
      <trkpt lat="43.13283" lon="3.12561">
        <ele>7.119997</ele>
        <time>2005-06-16T11:08:32Z</time>
      </trkpt>
      <trkpt lat="43.13269" lon="3.12531">
        <ele>5.400054</ele>
        <time>2005-06-16T11:08:32Z</time>
      </trkpt>
      <trkpt lat="43.13218" lon="3.12499">
        <ele>7.259754</ele>
        <time>2005-06-16T11:08:32Z</time>
      </trkpt>
      <trkpt lat="43.13176" lon="3.12459">
        <ele>7.124601</ele>
        <time>2005-06-16T11:08:32Z</time>
      </trkpt>
      <trkpt lat="43.13138" lon="3.12431">
        <ele>7.974874</ele>
        <time>2005-06-16T11:08:32Z</time>
      </trkpt>
      <trkpt lat="43.13111" lon="3.1239">
        <ele>9.84548</ele>
        <time>2005-06-16T11:08:32Z</time>
      </trkpt>
      <trkpt lat="43.13022" lon="3.12527">
        <ele>4.550024</ele>
        <time>2005-06-16T11:08:32Z</time>
      </trkpt>
      <trkpt lat="43.12995" lon="3.12582">
        <ele>4.200075</ele>
        <time>2005-06-16T11:08:32Z</time>
      </trkpt>
      <trkpt lat="43.12951" lon="3.12689">
        <ele>3.449935</ele>
        <time>2005-06-16T11:08:32Z</time>
      </trkpt>
      <trkpt lat="43.1294" lon="3.12701">
        <ele>3.249964</ele>
        <time>2005-06-16T11:08:32Z</time>
      </trkpt>
      <trkpt lat="43.12554" lon="3.12119">
        <ele>2</ele>
        <time>2005-06-16T11:08:32Z</time>
      </trkpt>
      <trkpt lat="43.12178" lon="3.11541">
        <ele>3</ele>
        <time>2005-06-16T11:08:32Z</time>
      </trkpt>
      <trkpt lat="43.11989" lon="3.11241">
        <ele>3</ele>
        <time>2005-06-16T11:08:32Z</time>
      </trkpt>
      <trkpt lat="43.11952" lon="3.11163">
        <ele>3</ele>
        <time>2005-06-16T11:08:32Z</time>
      </trkpt>
      <trkpt lat="43.1195" lon="3.11117">
        <ele>3</ele>
        <time>2005-06-16T11:08:32Z</time>
      </trkpt>
      <trkpt lat="43.11928" lon="3.11077">
        <ele>3</ele>
        <time>2005-06-16T11:08:32Z</time>
      </trkpt>
      <trkpt lat="43.11875" lon="3.10899">
        <ele>3</ele>
        <time>2005-06-16T11:08:32Z</time>
      </trkpt>
      <trkpt lat="43.11865" lon="3.10794">
        <ele>3</ele>
        <time>2005-06-16T11:08:32Z</time>
      </trkpt>
      <trkpt lat="43.11865" lon="3.10699">
        <ele>3</ele>
        <time>2005-06-16T11:08:32Z</time>
      </trkpt>
      <trkpt lat="43.11881" lon="3.1065">
        <ele>3</ele>
        <time>2005-06-16T11:08:32Z</time>
      </trkpt>
      <trkpt lat="43.11906" lon="3.10611">
        <ele>3</ele>
        <time>2005-06-16T11:08:32Z</time>
      </trkpt>
      <trkpt lat="43.11925" lon="3.10553">
        <ele>3.037501</ele>
        <time>2005-06-16T11:08:32Z</time>
      </trkpt>
      <trkpt lat="43.11934" lon="3.10495">
        <ele>3.949898</ele>
        <time>2005-06-16T11:08:32Z</time>
      </trkpt>
      <trkpt lat="43.11926" lon="3.10442">
        <ele>3.749958</ele>
        <time>2005-06-16T11:08:32Z</time>
      </trkpt>
      <trkpt lat="43.11926" lon="3.104">
        <ele>3.750027</ele>
        <time>2005-06-16T11:08:32Z</time>
      </trkpt>
      <trkpt lat="43.1203" lon="3.10214">
        <ele>5.030027</ele>
        <time>2005-06-16T11:08:32Z</time>
      </trkpt>
      <trkpt lat="43.12004" lon="3.10189">
        <ele>5</ele>
        <time>2005-06-16T11:08:32Z</time>
      </trkpt>
      <trkpt lat="43.1194" lon="3.10296">
        <ele>4.012507</ele>
        <time>2005-06-16T11:08:32Z</time>
      </trkpt>
      <trkpt lat="43.11861" lon="3.10386">
        <ele>3</ele>
        <time>2005-06-16T11:08:32Z</time>
      </trkpt>
      <trkpt lat="43.11784" lon="3.10413">
        <ele>2.179961</ele>
        <time>2005-06-16T11:08:32Z</time>
      </trkpt>
      <trkpt lat="43.11704" lon="3.10363">
        <ele>2.079987</ele>
        <time>2005-06-16T11:08:32Z</time>
      </trkpt>
      <trkpt lat="43.11639" lon="3.10328">
        <ele>2</ele>
        <time>2005-06-16T11:08:32Z</time>
      </trkpt>
      <trkpt lat="43.11613" lon="3.1015">
        <ele>2.750093</ele>
        <time>2005-06-16T11:08:32Z</time>
      </trkpt>
      <trkpt lat="43.11567" lon="3.10045">
        <ele>1.925007</ele>
        <time>2005-06-16T11:08:32Z</time>
      </trkpt>
      <trkpt lat="43.11537" lon="3.0979">
        <ele>2.000064</ele>
        <time>2005-06-16T11:08:32Z</time>
      </trkpt>
      <trkpt lat="43.1154" lon="3.09628">
        <ele>2.049913</ele>
        <time>2005-06-16T11:08:32Z</time>
      </trkpt>
      <trkpt lat="43.11554" lon="3.09597">
        <ele>2.350079</ele>
        <time>2005-06-16T11:08:32Z</time>
      </trkpt>
      <trkpt lat="43.1155" lon="3.09554">
        <ele>2.250043</ele>
        <time>2005-06-16T11:08:32Z</time>
      </trkpt>
      <trkpt lat="43.11568" lon="3.09503">
        <ele>2.649913</ele>
        <time>2005-06-16T11:08:32Z</time>
      </trkpt>
      <trkpt lat="43.11562" lon="3.09457">
        <ele>2.499983</ele>
        <time>2005-06-16T11:08:32Z</time>
      </trkpt>
      <trkpt lat="43.11451" lon="3.09305">
        <ele>1.999936</ele>
        <time>2005-06-16T11:08:32Z</time>
      </trkpt>
      <trkpt lat="43.11449" lon="3.09253">
        <ele>1.807507</ele>
        <time>2005-06-16T11:08:32Z</time>
      </trkpt>
      <trkpt lat="43.11431" lon="3.09222">
        <ele>1.192461</ele>
        <time>2005-06-16T11:08:32Z</time>
      </trkpt>
      <trkpt lat="43.11393" lon="3.09194">
        <ele>0.630082</ele>
        <time>2005-06-16T11:08:32Z</time>
      </trkpt>
      <trkpt lat="43.11297" lon="3.0915">
        <ele>0.450033</ele>
        <time>2005-06-16T11:08:32Z</time>
      </trkpt>
      <trkpt lat="43.11093" lon="3.09086">
        <ele>1.200001</ele>
        <time>2005-06-16T11:08:32Z</time>
      </trkpt>
      <trkpt lat="43.10956" lon="3.09032">
        <ele>0.03243</ele>
        <time>2005-06-16T11:08:32Z</time>
      </trkpt>
      <trkpt lat="43.10842" lon="3.0899">
        <ele>0.27998</ele>
        <time>2005-06-16T11:08:32Z</time>
      </trkpt>
    </trkseg>
  </trk>
</gpx>